TimeMST,TemperatureF,Dew PointF,Humidity,Sea Level PressureIn,VisibilityMPH,Wind Direction,Wind SpeedMPH,Gust SpeedMPH,PrecipitationIn,Events,Conditions,WindDirDegrees,DateUTC
12:52 AM,26.1,19.9,78,29.90,10.0,WSW,4.6,-,N/A,,Clear,240,2012-12-08 07:52:00
1:52 AM,28.9,21.9,75,29.88,10.0,South,10.4,-,N/A,,Clear,190,2012-12-08 08:52:00
2:52 AM,30.9,21.9,69,29.83,10.0,South,6.9,-,N/A,,Scattered Clouds,190,2012-12-08 09:52:00
3:52 AM,30.9,21.0,67,29.79,10.0,South,18.4,-,N/A,,Scattered Clouds,180,2012-12-08 10:52:00
4:52 AM,30.0,21.0,69,29.77,10.0,South,12.7,-,N/A,,Scattered Clouds,190,2012-12-08 11:52:00
5:52 AM,30.9,21.0,67,29.75,10.0,South,20.7,27.6,N/A,,Partly Cloudy,190,2012-12-08 12:52:00
6:52 AM,32.0,21.9,66,29.73,10.0,South,21.9,26.5,N/A,,Overcast,190,2012-12-08 13:52:00
7:52 AM,33.1,23.0,66,29.71,10.0,South,18.4,28.8,N/A,,Clear,190,2012-12-08 14:52:00
8:52 AM,37.0,25.0,62,29.70,10.0,SSW,16.1,21.9,N/A,,Clear,200,2012-12-08 15:52:00
9:52 AM,42.1,28.0,58,29.68,10.0,SW,18.4,24.2,N/A,,Clear,220,2012-12-08 16:52:00
10:52 AM,39.0,30.0,70,29.68,10.0,SSW,15.0,-,N/A,,Overcast,200,2012-12-08 17:52:00
11:52 AM,41.0,28.0,60,29.66,10.0,SW,15.0,-,N/A,,Mostly Cloudy,220,2012-12-08 18:52:00
12:52 PM,45.0,26.1,48,29.63,10.0,West,16.1,21.9,N/A,,Partly Cloudy,260,2012-12-08 19:52:00
1:52 PM,41.0,19.9,43,29.65,10.0,WNW,10.4,-,N/A,,Overcast,290,2012-12-08 20:52:00
2:52 PM,39.0,18.0,43,29.68,10.0,North,11.5,17.3,N/A,,Mostly Cloudy,360,2012-12-08 21:52:00
3:52 PM,34.0,21.0,59,29.74,10.0,North,4.6,-,N/A,,Clear,360,2012-12-08 22:52:00
5:27 PM,33.8,24.8,70,29.73,4.0,Variable,4.6,-,0.00,Snow,Light Snow,0,2012-12-09 00:27:00
5:40 PM,32.0,26.6,80,29.74,1.8,NNW,3.5,-,0.00,Snow,Light Snow,340,2012-12-09 00:40:00
5:52 PM,30.9,27.0,85,29.83,0.8,WNW,3.5,-,0.00,Snow,Light Snow,300,2012-12-09 00:52:00
6:10 PM,30.2,28.4,93,29.76,0.8,West,5.8,-,0.00,Snow,Light Snow,260,2012-12-09 01:10:00
6:41 PM,30.2,28.4,93,29.76,0.5,West,6.9,-,0.00,Fog-Snow,Snow,270,2012-12-09 01:41:00
6:52 PM,30.0,28.0,92,29.85,0.5,West,8.1,-,0.00,Fog-Snow,Snow,280,2012-12-09 01:52:00
7:03 PM,28.4,28.4,100,29.78,0.2,West,5.8,-,0.00,Fog-Snow,Heavy Snow,260,2012-12-09 02:03:00
7:22 PM,28.4,26.6,93,29.79,0.5,West,8.1,-,0.00,Fog-Snow,Snow,260,2012-12-09 02:22:00
7:34 PM,28.4,26.6,93,29.79,1.0,West,6.9,-,0.00,Snow,Light Snow,260,2012-12-09 02:34:00
7:42 PM,28.4,26.6,93,29.79,1.2,West,11.5,-,0.00,Snow,Light Snow,260,2012-12-09 02:42:00
7:52 PM,28.0,25.0,88,29.87,1.2,WNW,5.8,-,0.00,Snow,Light Snow,290,2012-12-09 02:52:00
7:56 PM,28.4,24.8,86,29.79,2.0,West,5.8,-,0.00,Snow,Light Snow,270,2012-12-09 02:56:00
8:04 PM,28.4,24.8,86,29.80,9.0,West,8.1,-,0.00,,Overcast,260,2012-12-09 03:04:00
8:32 PM,26.6,21.2,80,29.83,2.5,NW,15.0,25.3,0.00,Snow,Light Snow,310,2012-12-09 03:32:00
8:40 PM,24.8,21.2,86,29.83,0.8,NW,12.7,21.9,0.00,Snow,Light Snow,320,2012-12-09 03:40:00
8:49 PM,24.8,21.2,86,29.84,1.2,NW,11.5,-,0.00,Snow,Light Snow,320,2012-12-09 03:49:00
8:52 PM,24.1,21.9,91,29.93,1.5,NW,12.7,-,0.00,Snow,Light Snow,320,2012-12-09 03:52:00
9:27 PM,23.0,19.4,86,29.87,2.5,NW,6.9,-,0.00,Snow,Light Snow,320,2012-12-09 04:27:00
9:30 PM,23.0,19.4,86,29.87,3.0,NW,8.1,-,0.00,Snow,Light Snow,320,2012-12-09 04:30:00
9:49 PM,23.0,19.4,86,29.89,2.0,WNW,12.7,17.3,0.00,Snow,Light Snow,290,2012-12-09 04:49:00
10:52 PM,18.0,12.9,81,30.03,4.0,North,13.8,18.4,0.00,Snow,Light Snow,360,2012-12-09 05:52:00
11:09 PM,17.6,10.4,73,29.94,2.5,NNW,17.3,25.3,0.00,Snow,Light Snow,340,2012-12-09 06:09:00
11:17 PM,15.8,10.4,79,29.94,3.0,North,21.9,28.8,0.00,Snow,Light Snow,360,2012-12-09 06:17:00
11:41 PM,14.0,8.6,79,29.95,5.0,NNW,17.3,23.0,0.00,Snow,Light Snow,340,2012-12-09 06:41:00
11:50 PM,14.0,6.8,73,29.94,6.0,NNW,12.7,21.9,0.00,Snow,Light Snow,340,2012-12-09 06:50:00
11:52 PM,14.0,7.0,74,30.04,7.0,NNW,13.8,21.9,0.00,Snow,Light Snow,340,2012-12-09 06:52:00